Location: Unspecified
(36.9193°S, 174.7252°E)
Time: 03:39:43
(UTC+12:00)

Hubble Space Telescope - Visible Passes

Search period start: 21 September 2021 00:00
Search period end: 01 October 2021 01:00
Orbit: 535 x 539 km, 28.5° (Epoch: 19 September)

Date Brightness Start Highest point End Pass type
(mag) Time Alt. Az. Time Alt. Az. Time Alt. Az.
21 Sep 2.5 04:15:12 23° NNE 04:15:12 23° NNE 04:17:44 10° ENE visible
22 Sep 2.8 04:04:46 20° NE 04:04:46 20° NE 04:06:40 10° ENE visible
22 Sep 2.6 05:40:48 10° WNW 05:43:50 20° NNW 05:46:53 10° NE visible
23 Sep 3.1 03:54:22 16° NE 03:54:22 16° NE 03:55:33 10° NE visible
23 Sep 2.7 05:29:54 10° WNW 05:32:43 18° NNW 05:35:32 10° NNE visible
24 Sep 3.5 03:44:00 12° NE 03:44:00 12° NE 03:44:25 10° NE visible
24 Sep 2.8 05:19:19 11° NW 05:21:35 15° NNW 05:24:04 10° NNE visible
25 Sep 2.9 05:09:02 12° NW 05:10:26 13° NNW 05:12:27 10° N visible
26 Sep 3.0 05:58:49 11° NNW 05:59:16 11° NNW 06:00:29 10° N visible
